Weather History for Valparaiso, FL

Change the Weather History Date:

Monday, December 30, 2013

  Actual Average Record
Temperature  
Mean Temperature 9 °C -  
Max Temperature 15 °C 16 °C 25 °C (1974)
Min Temperature 3 °C 4 °C -11 °C (1983)
Degree Days  
Heating Degree Days 16    
Moisture  
Dew Point 8 °C    
Average Humidity 91    
Maximum Humidity 100    
Minimum Humidity 71    
Precipitation  
Precipitation 0.00 mm - - ()
Sea Level Pressure  
Sea Level Pressure 1023 hPa    
Wind  
Wind Speed 3 km/h (North)    
Max Wind Speed 11 km/h    
Max Gust Speed -    
Visibility 16 kilometers    
Events Rain    
Averages and records for this station are not official NWS values.
T = Trace of Precipitation, MM = Missing Value Source: NWS Daily Summary

Daily Weather History Graph

Daily Weather History Graph

Search for Another Location

Airport:

Trip Planner

Search our weather history database for the weather conditions in past years. The results will help you decide how hot, cold, wet, or windy it might be!

Date:

Astronomy

Dec. 30, 2013 Rise Set
Actual Time 6:42 AM CST 4:55 PM CST
Civil Twilight 6:16 AM CST 5:21 PM CST
Nautical Twilight 5:46 AM CST 5:51 PM CST
Astronomical Twilight 5:16 AM CST 6:20 PM CST
Moon 4:35 AM CST 3:24 PM CST
Length of Visible Light 11h 05m
Length of Day
10h 12m
Waning Crescent, 4% of the Moon is Illuminated
Dec 30
Waning Crescent
Jan 1
New
Jan 7
First Quarter
Jan 15
Full
Jan 23
Last Quarter

Hourly Weather History & Observations

Time (CST) Temp. Windchill Dew Point Humidity Pressure Visibility Wind Dir Wind Speed Gust Speed Precip Events Conditions
12:55 AM 5.5 °C - 5.4 °C 99% 1021.0 hPa 16.1 km SE 1.9 km/h / 0.5 m/s - N/A   Clear
1:55 AM 4.0 °C - 3.8 °C 99% 1020.6 hPa 16.1 km Calm Calm - N/A   Clear
2:55 AM 3.5 °C - 3.3 °C 99% 1020.6 hPa 11.3 km North 3.7 km/h / 1.0 m/s - N/A   Clear
3:55 AM 3.9 °C 2.0 °C 3.7 °C 99% 1021.0 hPa 11.3 km NNW 7.4 km/h / 2.1 m/s - N/A   Clear
4:55 AM 5.1 °C - 5.0 °C 99% 1021.0 hPa 16.1 km NNE 1.9 km/h / 0.5 m/s - N/A   Partly Cloudy
5:55 AM 4.5 °C 3.3 °C 4.4 °C 99% 1021.3 hPa 16.1 km NE 5.6 km/h / 1.5 m/s - N/A   Partly Cloudy
6:55 AM 5.1 °C - 5.0 °C 99% 1022.0 hPa 16.1 km Calm Calm - N/A   Mostly Cloudy
7:31 AM 6.0 °C - 6.0 °C 100% 1021.6 hPa 16.1 km NW 1.9 km/h / 0.5 m/s - N/A   Mostly Cloudy
7:55 AM 7.5 °C - 7.4 °C 99% 1022.7 hPa 16.1 km Calm Calm - N/A   Mostly Cloudy
8:55 AM 8.6 °C - 7.9 °C 95% 1023.0 hPa 16.1 km NNE 1.9 km/h / 0.5 m/s - N/A   Mostly Cloudy
9:27 AM 10.0 °C - 9.0 °C 94% 1022.9 hPa 16.1 km Variable 3.7 km/h / 1.0 m/s - N/A   Mostly Cloudy
9:56 AM 10.2 °C - 8.5 °C 89% 1024.0 hPa 16.1 km East 3.7 km/h / 1.0 m/s - N/A   Mostly Cloudy
10:56 AM 13.3 °C - 8.5 °C 73% 1023.3 hPa 16.1 km ESE 3.7 km/h / 1.0 m/s - N/A   Mostly Cloudy
11:55 AM 13.9 °C - 8.8 °C 71% 1022.2 hPa 16.1 km Variable 1.9 km/h / 0.5 m/s - N/A   Mostly Cloudy
12:56 PM 14.5 °C - 10.2 °C 75% 1021.6 hPa 16.1 km ESE 3.7 km/h / 1.0 m/s - N/A   Overcast
1:55 PM 15.0 °C - 10.2 °C 73% 1021.2 hPa 16.1 km North 5.6 km/h / 1.5 m/s - N/A   Overcast
2:55 PM 14.8 °C - 10.2 °C 74% 1020.9 hPa 16.1 km North 3.7 km/h / 1.0 m/s - N/A   Overcast
3:56 PM 14.0 °C - 11.0 °C 82% 1021.9 hPa 16.1 km North 1.9 km/h / 0.5 m/s - N/A   Overcast
4:55 PM 12.8 °C - 10.9 °C 88% 1023.0 hPa 16.1 km NW 5.6 km/h / 1.5 m/s - N/A   Overcast
5:55 PM 12.2 °C - 11.0 °C 92% 1024.0 hPa 16.1 km WNW 9.3 km/h / 2.6 m/s - N/A   Overcast
6:57 PM 11.9 °C - 10.6 °C 92% 1023.7 hPa 16.1 km Calm Calm - N/A   Overcast
7:11 PM 12.0 °C - 11.0 °C 94% 1022.9 hPa 16.1 km Calm Calm - N/A Rain Light Rain
7:20 PM 12.0 °C - 11.0 °C 94% 1023.2 hPa 16.1 km Calm Calm - N/A   Overcast
7:55 PM 11.5 °C - 10.7 °C 95% 1025.0 hPa 16.1 km Calm Calm - 0.0 mm   Overcast
8:45 PM 11.0 °C - 11.0 °C 100% 1023.9 hPa 16.1 km Calm Calm - N/A Rain Light Rain
8:55 PM 11.2 °C - 10.6 °C 96% 1024.7 hPa 16.1 km North 7.4 km/h / 2.1 m/s - 0.0 mm   Overcast
9:55 PM 11.0 °C - 10.4 °C 96% 1025.4 hPa 16.1 km Calm Calm - N/A   Overcast
10:57 PM 11.0 °C - 10.4 °C 96% 1025.0 hPa 16.1 km North 7.4 km/h / 2.1 m/s - N/A   Overcast
11:56 PM 11.2 °C - 9.7 °C 91% 1025.0 hPa 16.1 km North 11.1 km/h / 3.1 m/s - N/A   Overcast
11:58 PM 11.2 °C - 9.7 °C 91% 1025.0 hPa 16.1 km North 9.3 km/h / 2.6 m/s - N/A   Partly Cloudy